Back to catalog

OPTUS D3

AliveCommunicationsGEO
NORAD 35756·PAYLOAD·🇦🇺 Australia

Launched Aug 21, 2009 from Guiana Space Centre

Loading…

TLE

FreshSource: Space-Track

Epoch: Sep 14, 2026, 10:17 UTC

1 35756U 09044B   26257.42892090 -.00000154  00000-0  00000-0 0  9990
2 35756   0.8202 267.9798 0004151 264.7695 131.2060  1.00273105 62468

Track OPTUS D3 in real time with AllMySat

Download on the App Store